Torna al catalogo

STARLINK-3598

AttivoComunicazioniVLEO
NORAD 51897·PAYLOAD·🇺🇸 United States

Lanciato Mar 3, 2022 da Cape Canaveral Space Force Station

Loading…

Prossimi Passaggi (prossime 24 ore)

TLE

AggiornatoSource: CelesTrak SupGP

Epoca: Sep 14, 2026, 22:12 UTC

1 51897C 22022AX  26257.92548611  .00002223  00000+0  65669-4 0  2577
2 51897  53.1570 213.4740 0001405  96.6967  18.0682 15.34392499    12

Traccia STARLINK-3598 in tempo reale con AllMySat

Download on the App Store